Theta_e
340 342 343 340 334 333 333 332 332 332 333 333 334 335 335 335 336 336 337 336 334 333 333 335 336 336 335 333 333 332 331 330 330 330 331 331 332 332 333 333 333 334 333 333 333 333 333 333 333 333 332 333 333 333 332 333 333 332 332 333 334 333 332 333 332 332 331 330 331 332 332 333 334 332 331 333 332 331 330 330 329 329 331 331 330
339 341 339 333 330 333 334 333 332 331 332 333 335 335 334 335 335 336 335 335 335 334 336 337 338 337 335 333 331 330 330 330 330 330 330 330 330 330 331 331 331 331 331 331 331 330 330 332 332 332 331 332 332 332 332 333 333 332 332 333 333 332 332 333 333 332 331 330 331 333 332 332 332 331 331 331 331 331 330 329 328 327 329 330 330
341 339 334 330 330 332 332 332 332 331 332 334 333 332 333 335 335 334 332 333 335 336 337 338 337 335 333 330 329 329 330 329 329 329 329 329 328 329 329 329 329 329 328 328 329 329 329 329 330 329 329 330 330 331 332 332 333 333 332 332 332 331 332 333 333 332 331 330 331 333 333 333 333 332 331 330 330 331 330 328 328 328 328 329 329
337 331 330 329 328 330 332 332 333 332 333 334 333 333 333 333 334 334 333 333 335 336 338 338 335 333 331 330 329 329 329 328 327 326 327 327 327 328 328 327 328 327 326 327 328 328 328 328 328 328 328 328 328 328 329 330 331 332 332 331 331 330 331 332 332 331 330 331 332 333 332 332 334 333 331 330 330 330 328 328 328 328 328 328 328
331 329 330 330 329 331 333 333 333 333 333 333 334 334 333 333 333 333 333 334 334 336 337 335 332 332 331 331 330 328 327 327 326 326 326 327 327 327 326 326 326 326 326 327 328 328 328 328 328 328 328 327 327 327 327 328 328 329 330 330 330 330 330 330 330 330 330 331 331 332 332 333 334 332 331 331 329 329 328 328 329 329 328 328 327
333 331 331 331 332 332 333 333 334 334 333 333 333 333 333 332 332 333 333 333 334 336 336 333 332 332 331 331 329 328 327 327 327 326 326 326 326 326 326 325 325 325 326 326 327 327 328 327 327 327 326 327 327 327 327 328 328 328 329 330 329 329 329 329 329 329 330 330 330 331 332 333 332 332 332 331 329 328 328 327 327 328 328 327 326
335 331 330 331 332 333 333 334 335 334 333 333 333 333 334 333 333 333 333 334 335 335 334 333 333 332 331 330 328 328 328 328 327 325 325 326 327 326 326 325 325 325 326 326 327 327 327 327 326 325 325 326 326 327 327 327 328 328 328 329 328 329 329 328 328 329 330 330 329 330 330 330 331 331 332 331 329 329 328 325 324 324 325 325 325
332 330 332 333 334 334 334 335 335 333 332 333 333 334 334 333 333 333 333 335 336 335 333 333 332 331 330 328 328 328 329 328 326 325 325 325 325 325 324 325 325 325 325 325 325 325 325 324 324 323 323 324 325 326 326 326 326 327 328 328 328 328 329 328 328 329 329 328 328 328 329 329 329 330 330 330 330 329 327 324 322 322 322 322 323
330 333 333 334 336 336 335 336 334 333 331 333 334 334 335 334 334 334 334 335 336 335 333 332 332 330 329 329 328 329 329 327 326 325 325 324 324 324 325 324 324 324 323 323 322 321 321 321 323 323 323 323 324 324 323 324 325 326 327 326 326 326 327 327 327 327 326 327 327 327 329 329 329 330 329 329 328 329 327 325 323 322 321 321 321
333 335 334 335 336 335 336 336 335 332 331 333 333 333 334 334 334 334 333 333 334 334 332 331 330 329 328 329 329 328 327 326 325 325 325 324 323 323 324 323 322 322 321 321 320 320 321 322 323 323 322 321 321 320 321 322 325 325 325 325 325 324 324 324 324 323 322 322 322 323 326 327 329 330 330 328 328 328 327 326 324 322 321 320 320
336 336 336 336 336 336 336 336 335 334 333 333 332 332 333 333 334 334 333 333 333 332 331 330 329 328 327 328 328 327 325 325 325 325 325 325 323 322 322 322 321 321 320 320 320 320 321 322 322 322 320 319 319 319 321 322 323 323 323 323 323 323 322 322 321 320 319 318 317 317 319 321 325 328 328 328 327 327 327 325 323 321 320 320 319
338 337 337 337 336 336 336 335 335 334 333 333 332 332 333 333 335 335 334 333 333 332 331 330 329 327 326 327 326 325 324 324 325 324 324 323 323 323 321 320 320 320 319 319 319 319 320 321 321 321 320 319 318 319 319 320 320 321 320 320 320 320 320 320 319 318 317 316 315 315 316 318 323 325 325 325 326 327 327 324 322 320 319 318 318
336 336 336 337 335 336 336 334 333 333 333 333 333 333 333 333 334 334 333 334 333 332 330 328 328 326 325 327 326 325 324 324 323 324 324 323 324 323 320 318 319 320 319 319 319 319 319 320 320 320 320 320 319 318 317 318 319 319 319 319 318 319 319 318 317 317 316 315 314 315 315 316 319 322 323 324 324 325 324 322 320 319 318 317 317
334 333 333 334 335 336 335 334 333 332 333 333 333 333 333 333 334 333 333 333 332 330 328 325 325 325 325 326 326 326 324 323 324 323 323 324 323 322 319 318 319 319 319 319 319 319 318 318 319 319 319 319 319 317 315 316 317 317 317 317 317 317 318 317 317 317 316 314 314 314 314 314 316 318 321 323 322 322 322 320 319 319 318 316 314
332 331 330 331 335 336 335 335 334 333 333 334 334 334 333 333 334 333 332 332 331 328 324 324 325 326 326 326 326 326 324 324 324 324 323 323 322 320 319 319 319 319 319 318 317 318 318 318 318 318 318 318 317 316 315 315 315 315 316 316 316 316 316 316 317 316 315 314 313 314 314 314 314 316 318 320 319 319 318 318 319 321 320 316 313
329 330 329 330 334 335 333 333 334 334 333 334 335 334 333 333 334 333 332 332 331 327 324 325 327 328 327 326 326 325 324 323 323 323 322 321 320 320 319 319 319 320 319 317 317 317 317 317 318 318 318 318 317 317 316 316 315 315 315 316 316 316 316 316 316 316 315 314 314 314 314 313 314 315 318 318 318 318 318 318 318 318 319 319 317
328 329 328 329 334 334 332 331 332 333 333 334 334 334 334 334 334 334 333 332 331 328 327 328 329 328 326 326 327 325 324 323 323 323 322 320 321 320 319 319 320 320 318 317 317 317 317 317 318 318 318 317 317 317 317 317 316 315 315 315 316 316 316 316 316 316 315 314 314 314 314 314 314 315 316 316 316 317 317 316 317 316 317 320 319
329 329 329 331 335 335 333 332 332 331 331 333 334 334 334 334 333 333 333 333 332 331 331 331 330 328 326 327 327 326 325 324 323 322 321 320 321 320 320 319 319 320 319 318 318 318 318 318 318 318 318 317 318 317 317 317 316 316 316 316 316 316 315 316 316 315 315 315 314 314 314 313 313 314 314 314 314 315 315 315 317 316 317 318 317
328 329 331 333 334 334 334 333 332 331 330 332 333 332 332 333 333 333 332 333 333 333 332 331 330 329 329 328 327 326 326 324 323 323 321 321 321 320 321 320 320 320 319 319 319 319 319 319 319 319 319 319 319 318 318 318 317 317 317 317 316 316 315 315 315 314 315 315 314 315 315 314 313 313 313 314 313 314 314 314 315 315 315 317 315
328 329 332 333 333 333 334 333 332 331 331 331 331 330 329 329 331 333 332 332 332 331 331 331 331 329 328 329 328 326 326 324 323 322 321 321 322 321 321 320 319 320 320 320 320 319 319 320 319 320 319 319 319 319 319 319 319 319 318 318 318 317 316 316 316 315 316 315 314 314 314 314 314 312 312 313 313 313 313 314 314 314 315 316 314
330 329 331 332 332 333 333 332 332 331 330 330 329 328 326 324 327 331 331 331 331 329 330 330 331 330 328 329 328 326 326 325 324 323 321 321 322 322 321 320 319 320 320 320 320 319 319 319 319 319 319 320 320 320 320 321 321 320 320 319 319 319 318 317 316 316 317 316 315 314 315 315 314 313 313 312 312 313 313 313 314 315 315 315 315
330 328 328 330 331 332 332 331 331 330 330 330 328 328 327 325 325 327 326 326 327 327 327 327 328 329 328 328 327 325 326 326 325 323 321 321 322 322 322 321 320 320 320 320 320 319 319 319 319 319 319 320 321 321 321 322 322 322 321 321 321 320 320 319 318 318 317 317 317 317 316 316 315 315 315 313 313 313 313 314 316 316 316 317 316
329 328 327 328 328 329 330 330 330 329 329 329 328 328 328 327 327 327 325 325 325 325 325 325 325 327 328 328 326 325 326 327 325 324 321 321 321 322 322 321 319 319 320 319 319 319 319 319 318 319 320 320 321 322 322 322 323 322 322 322 322 322 322 321 320 319 318 318 318 318 317 317 318 318 316 314 313 314 314 315 316 316 317 317 317
328 328 327 327 327 327 327 328 329 329 328 328 327 328 328 328 328 328 327 327 326 325 326 325 324 325 327 327 324 324 326 327 326 324 322 322 321 321 322 321 320 320 319 319 318 318 319 319 318 319 320 320 321 321 322 323 323 323 323 323 322 323 322 322 322 320 319 319 319 320 319 318 319 319 317 316 315 314 314 315 315 316 317 317 316
328 328 327 327 326 325 325 326 326 326 327 327 327 327 327 327 327 327 328 327 326 326 326 326 326 326 327 327 324 324 326 327 326 324 322 321 320 320 321 320 320 320 319 319 319 318 319 318 319 319 320 320 321 322 322 323 323 322 323 322 322 323 323 323 322 322 321 320 320 320 320 319 319 319 318 318 316 315 315 316 316 317 317 317 317
327 327 327 327 326 324 324 325 326 326 326 327 328 328 328 327 326 327 328 327 326 326 325 325 326 327 327 327 325 324 325 326 326 324 322 321 320 320 319 319 320 319 318 319 319 318 319 320 320 320 320 320 321 322 322 322 322 322 322 322 322 322 322 322 321 321 321 321 320 321 320 320 320 319 319 319 318 316 316 316 316 317 317 317 317
326 327 327 327 327 326 326 327 326 326 326 327 329 329 329 329 328 327 327 326 326 326 325 325 325 325 326 326 324 323 324 325 326 325 323 323 321 320 320 320 319 319 318 319 319 319 319 320 319 320 320 321 321 322 322 321 322 322 322 321 321 321 321 321 321 321 321 321 321 321 321 321 320 320 320 320 319 318 317 316 316 316 317 317 317
325 324 325 327 327 327 327 326 325 326 327 327 328 328 329 329 328 328 326 325 325 326 325 326 326 326 326 326 325 324 323 323 325 326 325 324 322 321 321 320 320 319 318 318 319 319 319 321 321 320 319 320 321 321 321 321 322 322 321 321 321 320 320 320 321 320 320 321 321 320 320 321 321 321 321 320 320 320 319 317 316 316 316 316 316
323 322 323 325 325 326 327 326 326 326 326 326 326 327 328 327 326 326 326 326 325 324 324 326 326 327 327 327 327 327 324 323 323 323 323 323 322 320 320 320 320 319 318 319 319 320 321 322 323 320 319 320 320 320 320 320 320 320 321 322 321 321 320 320 321 320 320 321 320 319 320 321 321 321 321 320 320 320 319 318 318 318 317 316 316
323 323 323 323 323 324 325 324 324 325 325 325 325 326 326 326 325 325 325 325 324 323 324 323 323 325 327 326 326 326 325 324 323 321 322 323 322 320 319 320 321 319 319 322 321 321 322 322 321 320 320 320 320 320 321 321 319 320 322 322 320 319 319 320 320 320 320 320 319 319 321 322 322 322 322 321 320 320 318 318 318 318 317 316 316
320 321 322 321 321 322 323 324 323 324 323 323 324 324 324 324 324 324 323 323 323 323 323 322 321 323 325 325 324 324 323 323 322 322 323 323 322 320 320 322 324 323 323 323 322 322 322 321 320 320 320 319 319 320 322 322 321 321 321 320 319 320 320 319 319 319 319 319 318 319 321 322 322 321 320 320 320 319 318 317 317 317 316 316 317
313 313 314 314 315 316 318 320 321 322 323 322 322 322 322 322 322 323 322 322 322 322 322 322 321 322 322 323 323 323 322 322 322 321 322 322 322 322 322 323 325 325 324 323 322 321 320 320 320 321 321 320 319 319 321 321 320 319 319 319 320 321 320 319 319 318 319 319 319 320 321 322 322 321 319 319 319 318 317 316 316 316 315 314 315
309 309 309 309 310 311 312 313 314 315 319 321 321 321 321 321 321 322 322 321 321 321 321 322 322 321 321 321 321 321 320 321 321 321 321 321 321 322 323 323 324 324 322 322 322 321 319 319 321 320 318 318 318 318 320 320 318 318 319 320 320 319 318 319 319 318 318 318 318 319 321 321 320 319 318 318 318 316 316 315 314 314 314 313 313
307 306 306 308 309 310 310 310 310 311 313 316 317 319 320 321 320 321 322 321 321 321 321 321 321 321 321 320 320 320 320 320 320 320 320 320 320 322 322 322 323 323 322 322 322 321 320 320 320 319 316 316 318 319 320 319 317 317 318 318 317 317 317 317 316 316 317 317 316 317 319 319 318 317 317 317 316 314 314 314 312 311 311 311 310
307 306 306 306 308 309 309 309 309 310 310 311 312 314 316 318 318 319 319 320 320 320 321 321 320 320 321 320 320 320 320 320 320 320 320 321 321 321 321 321 322 323 323 323 322 320 318 319 320 318 315 315 316 319 320 318 316 316 316 316 316 317 317 316 315 316 317 317 316 315 317 317 317 316 316 315 314 312 312 312 310 309 308 308 307
307 307 306 305 306 307 308 308 308 309 309 309 310 310 312 313 314 315 315 316 316 316 317 318 319 319 319 319 319 320 321 321 320 320 320 321 321 321 320 321 322 322 322 321 320 318 316 317 318 315 314 315 316 318 320 319 316 316 316 315 316 316 316 315 316 316 315 315 315 315 316 316 315 315 314 314 313 312 312 312 310 309 309 308 307
306 306 305 304 304 305 306 306 307 307 308 309 309 309 310 310 311 312 312 313 313 313 313 314 314 315 316 316 317 318 319 319 319 319 320 320 320 320 320 321 321 321 320 318 317 317 316 317 316 314 312 314 314 315 318 319 318 317 314 314 315 315 315 314 314 313 311 311 313 315 314 313 312 312 313 313 312 312 312 311 311 310 309 309 308
307 307 306 306 306 306 305 306 306 306 307 308 308 308 309 310 310 310 310 310 311 311 312 312 312 312 312 313 314 315 316 316 317 317 318 319 319 319 319 319 318 318 317 316 315 315 316 316 315 312 308 307 307 308 310 313 315 313 310 312 315 315 314 313 312 311 309 308 311 313 311 309 307 308 310 311 311 311 310 311 311 310 310 309 308
306 307 308 308 307 307 306 306 306 306 306 308 308 307 308 309 309 309 309 309 309 309 310 311 311 311 312 312 312 312 313 314 315 316 316 316 316 316 316 316 316 316 315 314 314 314 314 314 314 312 308 305 303 304 304 305 307 306 307 312 315 314 314 313 311 310 309 308 308 309 308 306 306 306 308 310 310 309 308 309 310 309 308 308 307
303 304 306 307 307 306 306 305 305 305 305 306 307 308 308 309 309 309 308 308 309 309 309 310 310 311 311 312 312 312 311 311 313 314 314 314 314 314 314 314 314 314 313 313 313 313 313 314 313 313 313 310 305 302 303 303 303 302 304 310 314 314 313 312 311 310 309 307 307 307 306 306 305 305 306 307 308 307 307 307 308 307 306 306 305
302 302 303 305 304 304 304 304 304 304 304 304 305 305 307 307 308 308 308 308 308 308 308 308 309 309 310 310 311 311 311 311 312 312 313 312 312 312 313 312 312 312 312 311 311 311 312 313 312 310 312 314 309 304 302 303 302 302 303 307 312 313 312 311 311 310 309 307 307 306 306 305 305 304 304 305 305 305 305 306 305 305 304 303 303
302 301 301 302 303 303 303 303 303 303 303 303 304 304 305 305 306 307 308 307 306 306 307 308 308 308 309 309 309 310 311 311 312 312 312 312 311 311 312 311 311 311 311 311 311 311 311 312 312 309 311 314 313 307 303 303 303 303 303 306 310 312 311 310 309 309 308 308 306 306 306 305 304 304 304 304 305 304 304 304 304 303 302 302 302
303 302 301 301 301 301 301 301 302 302 302 302 303 303 304 304 304 304 305 305 305 305 305 306 307 307 307 308 308 308 309 310 311 312 312 312 312 311 311 311 310 310 310 310 311 311 311 311 311 311 311 314 313 308 304 304 304 304 304 305 309 311 309 308 308 308 307 308 307 306 305 304 304 303 303 303 303 303 303 302 302 302 301 301 300
303 302 301 300 301 301 300 300 301 301 301 302 302 302 303 303 303 303 303 304 304 304 304 304 305 305 306 307 307 308 308 309 309 311 312 312 312 311 311 311 310 310 310 310 310 311 311 310 310 311 311 313 312 307 305 306 306 305 305 305 307 308 307 306 307 308 307 306 306 305 303 303 302 302 302 302 302 301 301 301 300 299 298 297 296
301 301 300 300 300 300 300 300 300 301 301 301 301 302 302 303 303 302 302 302 303 303 303 303 304 304 304 305 305 306 307 307 308 309 310 311 311 312 311 311 311 311 310 310 310 311 311 309 309 310 310 312 311 306 303 305 305 304 303 303 305 305 304 303 306 307 306 306 305 303 302 301 301 301 301 301 301 300 299 298 297 295 294 295 297
300 300 299 299 299 299 299 299 299 299 300 300 300 301 301 302 302 301 301 301 302 302 302 303 303 303 303 303 303 304 304 306 306 307 308 309 310 311 311 310 311 311 310 310 310 311 311 310 310 309 309 311 311 307 302 302 304 303 302 302 303 304 303 302 304 306 306 304 304 302 301 301 301 301 301 300 300 299 297 295 294 294 295 297 298
299 299 299 299 299 298 298 298 298 298 299 299 299 300 300 300 300 300 300 301 301 301 301 302 302 303 303 303 303 303 303 303 304 305 306 307 308 309 310 310 310 311 311 311 310 310 310 310 309 309 308 309 310 308 303 302 303 303 302 302 302 304 305 303 303 305 304 303 302 302 301 301 301 300 299 299 299 297 295 294 295 296 297 298 298
299 299 299 298 298 298 298 298 298 298 298 298 299 299 299 299 299 300 300 300 300 300 300 301 301 302 302 303 302 302 301 301 302 303 304 304 306 307 308 309 309 310 310 311 310 309 309 308 309 308 308 308 309 308 305 303 303 303 303 303 302 304 305 304 303 303 304 303 302 301 301 301 301 299 298 298 297 297 296 296 297 298 298 298 297
298 298 298 298 298 298 298 297 298 298 298 298 298 298 298 299 299 299 299 299 299 300 300 300 301 301 302 302 302 302 301 301 301 301 302 303 304 305 306 308 309 309 309 309 309 308 308 308 308 307 307 307 308 308 308 306 304 303 303 303 303 304 306 305 304 303 303 302 301 300 300 300 299 299 298 297 297 297 298 297 297 297 296 296 297
298 297 297 297 297 297 297 297 297 297 297 297 297 297 297 298 298 298 298 299 299 299 299 299 300 300 301 301 301 301 301 301 301 301 301 301 302 303 304 305 307 308 308 308 308 308 308 308 307 307 307 306 306 307 308 308 306 304 304 303 303 303 305 305 305 304 303 302 301 300 299 299 299 298 298 297 298 298 298 297 297 297 296 296 296
297 297 297 297 297 297 297 297 297 297 297 297 297 297 297 297 297 297 297 297 298 298 298 298 299 299 300 300 301 301 301 301 301 301 301 301 302 302 303 303 304 306 306 306 306 306 307 307 307 306 306 305 305 306 307 308 307 306 305 305 304 304 304 305 305 304 303 302 301 299 299 299 299 299 298 298 298 298 297 296 296 296 296 296 296
Wind_Speed
11 13 11 8 19 27 23 24 27 25 23 24 24 21 20 20 21 20 18 17 17 17 15 14 13 12 13 12 12 12 11 12 14 13 12 12 12 11 9 9 8 7 7 7 8 6 7 7 6 6 6 5 4 6 6 4 5 4 4 5 3 3 3 2 2 4 4 4 2 0 0 1 1 2 6 8 9 11 14 13 9 8 9 11 9
10 10 11 18 24 22 17 20 24 23 20 19 20 20 19 18 17 17 16 14 13 14 14 12 11 13 13 12 13 14 13 13 14 13 13 13 12 11 10 9 9 8 8 8 8 6 7 7 6 6 6 5 3 5 6 5 5 4 3 3 3 3 3 3 4 4 4 3 2 2 1 1 1 3 7 9 9 11 15 17 13 9 9 10 9
6 10 15 15 13 16 17 18 19 20 19 19 20 20 19 19 18 17 18 16 11 10 12 11 12 13 12 12 14 14 15 15 14 13 13 13 13 11 10 9 8 7 8 8 8 7 7 7 6 5 5 4 4 4 4 5 4 3 3 3 3 3 2 3 3 3 4 4 2 1 0 0 1 4 8 10 12 13 14 15 14 12 11 11 11
11 12 9 7 10 10 13 17 18 20 23 24 24 23 22 21 20 17 16 15 11 9 11 12 14 13 12 13 16 17 17 16 15 13 13 13 12 10 9 9 7 7 8 9 8 8 7 7 7 6 5 4 4 4 3 2 3 3 2 3 4 4 2 3 2 0 3 3 1 1 1 1 2 4 7 10 13 15 16 16 16 16 15 14 14
13 7 3 7 6 8 14 19 21 22 25 27 28 28 27 25 22 17 14 11 10 10 13 15 16 15 14 15 16 17 15 14 14 13 12 12 11 10 9 9 8 8 8 9 9 8 8 8 7 7 6 4 4 5 4 4 5 4 3 4 4 4 4 4 4 2 2 2 2 1 1 1 2 4 6 8 13 15 17 17 17 19 19 17 15
6 6 7 4 7 12 15 18 21 22 25 27 28 28 27 27 26 22 19 15 12 13 15 16 16 15 15 15 15 15 13 13 13 12 12 13 11 10 10 9 9 9 9 10 10 8 8 7 6 7 6 6 8 9 9 8 9 8 6 7 7 5 5 7 6 4 2 3 4 1 1 2 3 4 3 4 10 12 15 16 16 17 19 19 16
7 6 5 4 8 12 13 15 17 17 22 26 25 25 25 27 28 25 23 19 15 15 16 15 15 15 15 15 14 14 13 13 13 13 14 13 11 11 10 9 8 9 10 9 9 9 8 6 5 5 6 9 11 10 10 10 10 9 9 10 12 11 9 9 8 5 3 4 4 3 2 3 3 3 2 3 5 7 12 18 18 17 17 18 17
5 4 4 6 9 12 14 16 17 17 21 23 22 24 25 26 27 27 25 22 19 19 18 16 16 16 15 15 14 14 15 15 14 14 14 13 12 11 10 10 9 9 9 9 9 8 8 7 6 5 5 10 12 11 10 10 9 10 10 12 14 15 13 12 10 8 5 5 6 6 5 5 5 4 5 6 5 4 8 14 18 20 20 19 17
5 5 5 7 11 15 17 18 20 22 24 20 19 24 28 28 28 28 27 25 23 21 20 19 17 17 15 15 15 17 17 16 14 14 14 12 11 11 11 11 11 10 10 10 10 9 9 9 8 8 8 10 12 11 11 11 10 11 12 12 14 15 14 14 13 10 7 6 6 6 7 8 7 8 8 9 8 5 5 6 11 15 16 17 18
6 7 6 8 15 18 18 20 22 23 22 19 19 23 28 30 28 27 27 25 24 23 22 19 18 18 15 14 18 19 17 16 16 15 13 12 11 11 11 11 11 11 11 11 11 11 11 11 9 9 11 13 12 10 11 12 12 13 13 13 14 14 13 13 12 11 9 8 7 6 9 9 7 7 8 10 9 8 6 6 10 11 9 12 17
5 7 9 11 17 19 20 21 19 19 19 18 19 21 26 29 26 24 25 25 26 25 22 20 20 19 15 15 19 19 17 18 18 15 13 12 12 12 12 11 11 11 11 12 12 12 12 12 11 10 12 12 11 11 12 12 12 13 14 13 14 14 13 13 13 12 11 11 10 10 10 8 7 9 10 11 10 8 7 6 10 12 10 10 15
4 5 7 12 16 17 19 19 16 17 19 17 18 20 22 25 27 26 24 25 27 25 23 22 21 19 15 15 19 19 19 19 18 16 14 13 12 13 13 13 12 11 12 12 12 12 12 12 11 12 12 12 11 12 12 12 13 14 14 14 15 15 14 14 14 14 12 11 11 12 12 11 12 14 13 13 14 13 11 8 11 14 10 9 14
4 3 5 9 12 15 18 17 15 18 19 18 18 18 19 22 27 28 26 27 27 25 24 22 20 19 16 15 17 18 19 18 17 16 15 13 13 13 14 13 12 12 12 12 12 12 12 12 12 12 12 11 11 12 12 12 13 14 14 14 15 14 14 15 15 14 13 13 13 13 12 11 12 13 12 13 15 15 13 10 13 15 12 11 15
5 3 2 6 10 15 18 18 16 17 18 18 17 16 17 20 23 26 27 27 26 25 25 23 21 19 15 14 16 18 18 17 17 16 15 14 13 14 14 14 13 12 12 12 11 11 12 12 12 12 11 11 12 12 13 14 14 14 14 15 15 15 15 16 15 15 14 14 13 13 12 12 11 9 8 10 12 11 14 14 14 14 13 14 16
4 2 3 4 9 15 18 19 17 17 17 18 16 14 15 17 18 23 26 23 23 25 25 24 22 18 15 16 17 17 17 17 16 16 15 14 14 14 14 14 14 13 12 12 12 12 13 12 12 12 12 12 12 12 13 14 14 14 14 15 15 14 15 16 16 16 15 15 14 13 13 13 12 11 11 10 10 11 14 14 13 10 7 8 12
5 3 2 5 6 13 16 16 17 18 18 17 16 15 16 16 17 20 22 21 20 23 24 23 21 17 17 19 18 17 17 16 16 15 15 15 15 15 14 14 14 13 13 13 13 13 13 12 12 11 11 11 11 12 12 13 13 13 14 14 14 13 14 15 15 15 15 15 15 15 14 14 13 13 14 14 13 11 10 7 8 12 8 5 7
6 7 5 6 6 14 16 16 17 18 18 16 16 16 15 16 17 18 19 19 18 20 21 21 18 17 19 19 17 18 17 16 16 15 15 16 16 15 15 16 15 15 15 14 13 13 13 12 11 10 10 11 11 11 11 12 12 13 13 13 13 13 13 14 14 14 14 15 15 15 15 15 14 14 13 13 13 11 11 12 12 13 9 3 5
1 5 8 8 8 14 17 18 19 19 17 15 15 14 14 15 17 16 17 17 18 19 19 18 17 17 18 16 16 17 15 16 16 15 16 17 16 16 16 17 17 16 16 15 14 14 12 12 11 11 10 10 9 9 10 10 11 11 11 11 11 11 12 12 13 13 14 14 14 14 14 14 14 13 12 11 12 12 11 12 13 15 14 10 11
1 5 7 7 9 13 16 17 19 19 17 15 14 13 13 13 14 14 15 16 16 18 18 17 17 17 16 15 17 16 13 16 17 16 17 17 17 17 17 17 18 17 16 16 15 14 13 12 11 10 9 9 8 8 8 8 9 9 9 9 9 9 10 11 10 11 12 12 12 12 11 11 12 12 12 10 11 12 11 10 11 13 16 16 19
9 8 7 9 10 14 16 15 17 18 16 16 14 12 10 9 12 15 15 16 17 17 17 16 15 16 16 15 17 16 13 15 17 16 17 17 17 18 18 18 18 17 17 17 15 14 14 12 11 10 9 9 8 7 7 7 7 7 7 8 7 7 8 8 8 8 9 9 9 9 10 10 11 10 10 9 10 12 12 12 11 11 14 16 20
7 8 9 10 11 14 17 17 17 18 17 15 14 13 11 10 12 13 13 14 17 17 18 18 16 15 16 17 17 17 14 14 16 16 17 17 18 18 18 18 18 17 17 17 15 14 13 12 11 10 9 8 7 6 6 6 5 6 6 6 5 6 7 6 6 7 6 6 7 8 9 9 8 7 6 8 8 7 8 10 10 10 12 14 16
5 7 10 11 11 14 17 18 17 16 16 15 14 15 15 14 13 11 10 11 13 16 18 18 17 15 15 18 19 18 17 14 14 16 17 17 18 18 18 19 17 17 17 16 15 15 13 12 11 10 9 8 7 6 6 5 4 5 5 5 4 5 6 5 4 4 5 5 5 7 8 6 6 5 6 7 6 5 6 9 11 11 12 11 10
6 6 7 9 11 14 17 18 16 16 16 15 14 14 14 16 16 15 15 16 16 18 17 17 17 14 13 18 20 19 19 15 12 16 18 17 18 19 19 19 18 17 17 16 15 15 14 12 11 10 9 8 7 7 5 5 5 4 4 4 3 4 4 4 2 2 3 4 4 5 6 5 5 6 7 8 5 6 9 10 9 9 10 9 9
8 7 6 7 11 13 14 15 15 15 15 15 14 13 12 13 13 13 14 15 16 17 16 14 16 13 11 14 17 18 19 17 16 19 19 19 19 19 20 19 18 18 17 15 15 15 13 13 12 11 11 10 9 8 6 6 5 5 4 3 2 2 2 1 0 0 1 4 3 2 4 4 5 5 5 6 4 5 8 7 4 6 8 5 5
9 8 7 7 8 10 11 12 14 14 14 14 13 13 13 13 14 12 12 13 14 16 15 14 15 14 12 14 17 17 16 16 19 21 20 20 20 20 20 20 18 17 18 15 15 15 14 13 13 12 12 11 10 9 8 6 6 5 4 3 2 0 0 1 3 4 4 3 0 1 2 2 3 4 3 4 4 4 5 4 4 8 9 6 4
8 8 7 6 6 8 10 11 12 12 11 10 11 12 13 14 15 15 15 15 14 15 15 15 15 14 13 15 19 18 16 16 20 22 21 20 21 20 19 19 18 17 17 16 15 15 14 13 13 12 12 12 11 9 9 7 5 5 3 2 3 5 5 4 4 5 6 7 8 6 3 3 2 2 1 1 3 4 2 1 5 9 8 6 5
6 6 4 4 5 7 11 13 12 10 8 7 8 9 10 10 11 12 12 12 11 12 13 13 14 13 13 15 17 18 20 21 20 21 18 14 16 19 17 16 17 17 16 16 14 14 14 12 11 9 7 7 8 6 6 8 5 2 2 2 3 4 4 5 5 6 7 7 9 12 10 3 2 2 2 1 1 1 1 2 3 7 7 4 4
8 8 6 4 8 10 10 11 10 8 7 6 5 7 6 6 5 5 5 5 5 2 4 6 10 12 13 15 17 19 22 22 18 16 13 5 1 7 12 11 12 14 15 15 14 14 14 10 7 5 3 3 4 2 3 7 5 2 2 3 4 5 7 8 7 7 7 6 5 8 11 6 3 2 3 3 2 1 1 2 4 5 3 2 4
8 7 1 1 7 9 8 8 8 7 8 8 6 7 7 6 5 5 4 6 7 4 3 5 6 8 11 14 16 18 20 18 14 11 12 7 3 3 10 9 10 13 13 14 15 13 13 9 4 5 4 3 4 2 3 3 3 3 4 4 5 6 7 8 6 5 5 4 4 4 5 5 4 2 3 4 5 4 2 1 2 3 1 0 2
6 1 4 4 8 9 10 11 9 8 8 7 6 5 6 7 6 4 4 5 6 7 7 6 6 6 7 10 11 12 13 13 11 9 13 14 10 11 14 10 11 15 14 13 14 12 11 8 3 3 3 3 4 3 4 4 4 4 5 5 4 3 2 4 3 3 4 4 4 6 4 4 5 4 4 5 6 6 6 5 4 2 2 1 1
7 5 4 9 10 9 11 12 11 10 9 6 5 4 4 7 7 5 5 5 5 6 5 5 7 8 7 7 8 9 8 7 8 9 11 14 16 17 17 10 9 12 12 10 10 9 8 6 4 3 3 4 7 5 5 6 6 6 5 2 1 3 3 2 2 3 4 5 4 3 3 2 3 3 4 5 6 7 8 9 8 5 4 2 1
11 10 12 13 12 13 14 13 11 10 9 8 9 5 2 5 8 7 6 6 6 7 6 5 6 7 7 6 5 4 5 5 5 6 7 11 14 16 16 11 8 8 9 11 11 10 8 6 7 8 7 7 9 7 6 6 4 4 4 4 4 3 4 4 4 4 5 5 4 4 5 4 2 1 1 3 3 5 6 8 10 9 7 6 4
12 13 14 14 14 16 19 20 20 18 13 11 11 7 3 5 7 9 9 8 6 5 4 2 3 2 3 2 1 3 5 5 5 5 6 10 14 16 15 11 9 8 10 13 13 12 9 7 8 8 8 8 9 8 6 4 5 8 8 6 4 4 6 6 5 5 6 6 5 6 7 5 4 3 1 2 1 3 5 5 7 8 8 8 8
12 13 13 13 15 17 21 23 24 24 22 18 14 7 5 7 7 7 10 11 9 7 5 3 3 3 3 3 5 8 8 8 9 11 12 13 15 16 15 12 9 9 9 10 10 10 9 8 8 8 10 9 7 8 8 7 8 11 9 7 6 7 7 8 8 8 8 7 6 6 7 6 5 5 2 2 1 5 5 2 1 2 2 3 4
10 11 12 15 17 18 20 21 21 22 23 23 24 19 9 7 9 9 11 12 12 12 13 11 8 8 10 9 10 11 11 12 14 15 15 14 14 15 14 12 10 9 9 8 10 11 10 10 11 11 11 9 8 9 10 9 10 11 9 8 7 8 9 10 10 10 9 9 8 8 8 9 9 8 6 4 3 6 6 6 6 5 5 3 2
8 9 11 14 17 17 18 19 19 21 22 22 24 26 24 19 14 10 8 7 8 9 10 11 11 11 12 13 13 13 12 13 14 14 13 11 11 12 11 11 10 10 11 12 14 14 13 14 15 14 13 11 10 10 10 11 11 10 9 8 7 8 11 11 9 8 8 8 9 10 8 7 7 7 7 5 4 5 5 5 6 5 4 2 0
10 11 12 13 14 15 18 20 21 22 22 21 23 26 27 29 28 24 20 17 14 12 9 8 7 7 9 9 11 14 14 13 13 13 12 11 11 11 11 10 11 13 14 15 15 15 15 17 16 13 13 13 12 11 11 11 11 11 10 8 6 9 13 12 8 7 6 7 9 9 8 5 4 5 5 5 6 6 4 4 6 6 2 1 3
13 13 12 13 16 18 19 20 21 23 23 21 22 23 24 26 27 25 23 23 23 20 17 15 15 12 9 8 7 8 12 14 14 12 11 12 12 13 13 12 12 14 15 14 14 15 17 18 16 13 13 14 13 12 11 11 10 11 12 8 6 11 14 12 9 7 6 7 8 7 5 5 5 5 4 6 9 5 3 2 7 6 2 3 5
14 11 8 11 15 17 16 16 16 17 17 17 17 18 19 20 21 21 21 21 22 24 22 19 19 15 10 10 10 10 8 9 13 13 11 11 13 14 14 14 13 13 13 13 13 15 17 16 16 15 13 12 13 12 11 11 10 11 12 9 7 11 13 13 14 12 8 8 9 7 5 5 6 6 5 6 7 3 5 4 6 4 1 2 1
18 17 9 10 12 14 14 14 14 13 13 13 13 12 12 11 11 14 17 17 17 18 18 17 16 15 12 9 8 7 7 5 6 10 9 8 10 12 12 12 13 13 13 12 12 15 17 15 15 15 12 11 12 12 11 11 10 11 13 11 6 8 11 12 15 15 12 11 11 9 7 6 6 6 5 4 3 1 3 5 4 3 4 5 4
15 18 16 13 12 13 13 13 13 14 14 15 14 12 10 8 7 8 11 12 12 12 13 12 11 11 11 11 9 7 3 3 1 5 6 4 4 8 10 8 8 10 11 13 13 15 18 17 14 13 12 10 11 12 13 13 12 12 14 12 6 5 8 9 11 15 17 15 13 10 9 8 6 4 4 3 3 3 4 4 4 4 4 3 3
12 14 15 12 11 12 12 12 12 13 13 13 13 13 12 11 10 10 10 11 12 11 11 11 10 10 11 11 13 12 8 6 6 3 1 4 3 4 7 7 7 6 5 8 10 12 15 17 15 13 13 12 11 11 12 13 13 12 13 12 8 5 7 6 4 10 19 18 13 12 12 9 6 4 3 3 4 5 6 6 6 7 8 9 10
10 12 13 12 11 11 11 11 11 11 11 12 12 11 11 11 12 13 12 12 13 12 12 11 11 11 12 12 12 12 10 7 7 7 7 8 8 5 5 6 7 7 7 7 6 9 10 11 13 15 17 16 13 11 11 12 12 12 11 11 10 6 6 5 5 9 17 17 14 14 13 9 6 4 3 4 5 5 5 6 7 8 9 10 11
9 11 12 11 10 10 10 10 10 11 11 11 11 10 10 10 11 12 13 12 13 13 12 12 12 11 12 12 11 11 11 10 10 10 10 10 10 9 9 9 9 10 11 11 10 10 10 10 12 14 18 19 16 13 13 12 12 11 11 10 10 8 5 4 7 8 11 13 14 13 10 6 4 3 2 2 3 3 4 5 6 7 8 7 6
7 9 11 10 9 9 9 9 10 11 11 11 11 10 11 11 11 11 12 12 12 13 12 12 11 12 13 13 14 13 13 13 12 11 11 12 12 12 12 12 12 13 14 13 13 14 14 14 16 15 16 19 18 16 16 14 13 12 11 10 10 9 6 4 6 6 7 10 11 9 7 5 4 2 0 2 2 2 3 5 6 5 4 2 2
6 7 8 9 8 8 9 10 10 11 11 12 12 11 11 12 12 12 12 12 12 12 12 11 11 11 12 13 15 16 16 16 15 12 11 11 12 14 14 14 15 15 15 14 13 12 13 14 14 14 15 19 21 20 19 18 15 13 12 11 10 10 8 6 7 8 8 10 9 6 5 4 2 0 2 3 2 2 4 3 2 1 1 2 2
3 4 5 6 7 8 9 10 11 11 11 12 12 12 12 12 13 13 13 13 13 13 13 13 12 12 13 13 14 15 16 17 17 16 15 15 14 14 15 16 16 14 12 11 9 6 6 8 10 11 11 13 21 23 21 20 18 16 15 14 13 12 10 8 8 10 10 9 8 6 4 2 1 1 1 2 2 2 2 1 3 3 2 2 1
4 4 4 5 6 7 9 10 11 11 11 12 12 13 13 13 14 14 13 14 15 15 15 15 14 14 14 14 15 16 17 17 18 18 19 19 18 17 16 15 15 14 11 10 10 9 8 6 6 10 14 8 14 22 23 22 21 19 17 16 15 15 14 12 11 12 12 10 8 7 6 4 4 3 3 3 2 1 2 4 2 0 1 2 5
7 6 6 8 9 9 10 11 11 10 11 11 11 12 12 13 13 13 14 15 15 16 16 16 16 15 15 15 16 16 16 17 17 18 20 20 19 20 19 13 11 13 14 13 13 14 12 9 7 5 8 8 5 13 20 23 22 20 20 20 19 19 18 16 15 15 14 12 10 9 8 7 6 5 4 5 7 7 5 4 2 3 3 4 5
9 8 9 9 9 9 10 10 11 11 12 12 11 10 11 12 13 13 13 14 15 16 16 16 16 16 16 16 17 17 17 17 17 18 20 20 20 21 22 19 13 11 12 13 12 13 13 13 15 14 11 8 8 7 14 21 21 20 21 20 19 19 19 18 18 17 15 13 12 11 9 8 7 7 7 8 10 10 7 5 5 5 3 2 3
10 10 9 9 10 10 11 12 13 14 14 14 14 13 13 13 14 14 14 15 15 14 14 15 16 16 17 17 17 17 18 18 18 18 17 18 18 18 20 22 20 16 14 15 15 14 14 15 16 18 18 15 12 10 14 21 23 22 20 20 19 19 19 20 21 19 16 13 12 12 11 11 10 11 11 10 9 8 6 5 5 5 3 3 3
Wind_Direction
185 182 175 123 84 84 97 113 120 130 137 136 135 135 135 138 140 136 134 142 149 151 146 142 140 134 130 125 123 123 121 118 110 107 111 112 112 113 116 121 124 122 119 124 126 129 130 123 126 133 138 147 166 174 173 186 197 190 182 184 184 155 164 193 147 132 121 109 97 51 276 39 352 5 50 56 56 74 94 103 115 134 134 136 149
180 148 101 81 89 106 133 134 131 135 126 121 127 129 130 131 131 132 137 144 150 155 151 145 142 137 135 135 133 128 125 118 112 112 111 108 105 103 105 106 107 108 103 109 114 107 104 108 116 126 129 131 145 157 159 177 191 188 175 171 171 149 154 176 169 158 147 132 142 170 241 300 358 35 60 64 62 74 94 105 111 112 114 129 147
140 96 80 83 118 145 139 121 120 119 111 116 128 135 140 139 139 146 153 154 156 161 155 144 134 132 129 130 129 118 113 114 113 113 110 106 104 103 107 110 110 111 105 105 108 102 100 108 114 114 116 122 135 147 162 177 177 184 181 157 151 147 147 162 177 196 158 131 127 145 103 44 31 59 69 64 68 76 88 106 111 102 105 126 137
74 66 80 130 172 158 120 109 111 110 109 120 134 144 148 147 149 154 154 157 165 165 154 136 126 125 117 114 118 110 105 109 109 108 107 104 104 105 108 111 110 105 101 99 100 100 100 104 108 106 107 115 130 146 159 155 143 160 163 128 134 146 146 132 126 170 146 126 91 54 75 81 40 85 89 67 68 73 78 99 111 105 109 119 121
70 77 173 191 167 112 113 121 121 119 123 136 150 152 148 147 152 153 150 161 175 163 146 132 125 124 117 112 115 113 112 114 111 110 112 109 108 110 109 108 106 100 100 101 100 98 94 96 102 101 96 90 89 94 81 65 79 82 67 76 102 133 143 126 110 110 143 143 147 121 27 60 77 121 117 71 66 74 79 95 109 110 112 112 109
121 182 207 180 109 109 124 129 127 131 141 152 156 149 144 149 155 154 150 156 168 155 143 136 133 132 127 123 123 124 128 128 123 122 123 118 117 117 115 114 113 106 101 99 98 98 97 97 106 107 99 87 82 84 78 67 68 68 65 69 68 83 122 121 115 124 139 131 136 145 6 56 111 135 148 86 72 79 84 88 95 106 112 106 101
168 198 200 127 113 121 127 129 130 138 153 158 152 144 146 150 150 148 143 147 157 153 146 144 144 144 138 134 136 137 136 130 124 120 119 118 118 117 117 116 109 103 98 97 98 99 97 91 97 112 123 110 91 83 84 77 73 72 69 71 71 79 98 106 109 115 110 89 90 105 84 78 107 105 103 121 98 82 84 84 82 88 98 99 99
148 171 170 125 121 129 134 135 132 143 157 154 145 144 148 147 142 141 143 149 158 157 153 153 153 150 144 142 141 134 126 120 116 115 117 122 125 124 125 119 108 104 101 100 101 98 94 93 90 79 105 119 102 87 85 81 79 80 77 76 76 80 88 91 96 101 102 97 83 82 88 87 98 92 82 101 116 112 93 85 82 84 89 94 98
134 157 163 132 130 138 140 135 136 151 157 146 141 147 148 147 145 145 149 153 157 157 156 158 157 151 149 144 133 123 121 123 122 121 125 132 133 127 120 112 108 106 103 102 100 97 95 98 93 64 65 95 99 91 90 86 85 85 82 83 80 80 85 87 89 89 92 109 107 107 132 132 111 100 100 101 104 119 121 100 96 93 92 98 102
157 161 161 138 135 140 140 136 143 157 157 142 142 151 151 151 151 149 152 155 156 159 158 159 159 155 150 140 131 129 132 133 130 130 135 136 129 121 117 115 113 108 106 105 99 98 98 97 94 74 69 82 89 94 98 94 90 88 84 85 84 83 86 87 88 85 78 79 78 96 132 139 124 112 107 104 97 92 105 117 116 111 102 109 115
160 149 148 134 133 139 139 140 147 155 156 147 144 153 154 153 152 150 155 158 157 160 161 159 160 158 150 137 137 141 143 138 133 135 139 138 133 132 130 126 121 113 108 106 102 99 98 97 95 87 82 85 89 97 100 96 91 88 86 84 84 85 86 85 85 86 82 75 65 72 86 83 101 121 116 119 121 111 115 125 123 124 122 124 133
131 131 142 131 134 142 138 140 147 148 152 156 152 155 157 155 154 153 158 161 159 161 163 161 161 160 150 141 145 149 144 138 138 142 145 146 146 139 132 128 126 122 115 110 106 103 100 100 98 95 92 88 88 92 94 95 91 88 88 86 84 85 87 85 82 81 80 73 64 71 77 66 83 109 113 117 129 138 142 138 132 131 123 127 139
108 113 138 136 143 147 140 143 154 151 154 165 163 160 159 158 159 157 158 162 162 164 164 161 162 160 150 147 154 151 142 139 143 147 150 154 152 141 137 138 136 129 122 116 111 109 106 104 103 101 99 95 94 93 93 97 96 92 91 90 88 87 88 85 81 78 75 71 66 69 76 68 75 98 113 124 140 152 147 129 127 134 137 138 130
53 44 167 165 152 149 146 149 159 161 163 169 166 164 162 161 162 159 159 163 164 163 162 160 160 157 154 157 158 149 141 144 149 151 155 157 153 149 148 146 139 132 128 122 119 117 112 108 107 105 103 101 97 92 93 96 96 95 93 91 90 89 89 86 83 80 76 76 75 70 68 61 62 72 98 134 151 148 135 128 131 141 148 142 127
69 25 278 226 156 146 147 148 158 167 170 171 169 168 166 166 166 161 161 164 164 162 162 161 160 159 161 163 158 148 145 149 152 156 159 157 154 154 151 145 139 136 132 127 123 119 115 111 109 107 105 101 98 94 93 93 94 94 92 89 88 86 85 84 82 81 77 77 79 73 65 57 57 55 59 81 93 105 122 134 144 148 141 123 113
141 135 269 260 154 130 133 144 158 167 172 174 171 167 166 168 168 162 162 165 163 162 162 162 163 163 164 162 156 150 150 152 156 160 159 156 156 154 149 146 143 140 135 132 128 122 119 116 112 110 109 106 105 102 98 96 96 96 94 91 90 88 87 84 82 79 76 77 78 75 69 60 56 57 60 62 62 85 101 84 112 125 116 115 111
170 151 182 224 158 125 132 149 161 164 168 173 173 168 163 166 165 161 161 161 159 159 161 163 165 164 162 160 154 151 154 158 160 160 158 157 157 154 150 150 149 144 141 138 132 126 122 123 120 117 116 112 109 104 100 99 97 95 95 92 90 88 87 85 82 79 76 76 77 76 72 68 64 62 65 60 47 62 67 40 60 86 73 107 135
168 180 184 183 153 133 136 151 160 162 168 172 170 164 161 164 164 162 160 157 158 160 161 165 167 161 159 158 155 155 157 161 161 159 160 159 157 156 154 153 151 149 148 144 139 136 133 132 131 125 119 116 112 108 105 102 99 99 97 93 93 91 90 88 84 81 80 78 77 76 73 70 73 67 62 60 48 51 56 42 53 59 53 91 126
235 228 194 156 146 138 135 147 154 156 165 166 157 154 163 166 162 162 163 156 157 160 160 164 166 164 162 156 157 162 160 160 162 161 162 163 159 158 157 155 156 155 153 151 147 145 144 141 138 135 128 123 120 116 111 107 106 104 100 97 97 94 92 90 89 85 83 82 78 78 77 72 75 74 63 60 53 52 58 55 59 57 55 91 121
184 190 166 141 142 138 135 143 141 138 150 158 150 145 156 166 161 160 162 160 158 159 157 157 158 164 169 164 163 167 159 157 164 166 167 168 165 162 161 160 160 160 158 157 155 154 152 152 148 143 138 134 130 124 119 114 109 104 103 105 103 99 96 89 93 94 86 88 86 82 81 74 76 81 75 73 63 57 66 69 71 66 55 76 107
164 153 137 126 130 136 140 144 138 134 142 149 149 146 146 162 170 159 152 158 162 161 160 159 153 154 167 172 171 171 163 156 165 171 173 174 170 166 166 165 165 165 164 162 162 161 159 158 156 151 147 146 142 135 131 125 116 113 112 111 107 105 103 96 97 100 95 96 96 91 88 77 78 82 73 89 88 68 82 89 85 83 71 77 102
121 119 123 124 132 139 141 143 144 144 143 142 149 154 151 159 170 166 165 174 179 176 170 168 165 157 165 174 176 177 170 158 166 177 179 179 176 171 169 169 169 170 169 168 168 167 165 164 162 161 159 155 152 148 144 138 131 128 121 119 121 107 104 108 105 101 107 105 93 95 97 83 81 75 56 78 87 37 64 95 90 83 75 70 89
112 108 117 127 134 135 137 142 146 148 147 146 153 156 152 156 161 166 176 184 192 191 181 179 180 173 172 178 182 183 174 167 179 185 184 184 181 176 173 172 173 174 174 174 174 172 170 170 169 168 166 164 163 161 160 158 151 149 147 138 129 108 103 110 112 125 127 115 90 88 102 93 80 71 56 71 75 29 49 82 88 81 75 55 48
122 115 111 122 127 126 129 134 134 138 141 144 151 149 146 157 161 162 170 174 182 189 186 190 194 191 189 187 190 190 177 177 192 189 187 189 183 179 178 176 176 177 178 180 180 178 176 176 176 175 174 175 173 171 176 178 172 170 172 163 146 137 141 132 28 274 117 119 130 105 103 105 90 84 73 75 79 45 56 82 100 99 104 90 52
117 114 112 116 119 121 125 127 127 131 134 137 144 145 149 166 174 174 177 177 181 187 186 190 193 195 199 192 191 190 181 193 205 193 186 189 184 181 182 179 178 178 181 185 184 182 184 182 182 181 179 180 180 179 182 187 187 190 197 199 203 242 68 25 339 324 346 19 43 210 150 133 102 99 92 71 80 73 60 63 54 73 105 123 103
114 113 116 119 118 121 117 106 105 113 122 134 144 148 156 167 173 177 183 184 186 187 187 190 189 188 193 191 190 189 188 208 213 195 187 189 185 182 182 183 182 179 182 189 187 187 189 185 187 193 190 187 187 184 185 195 201 203 228 312 358 4 1 352 321 295 306 327 326 311 274 185 139 120 136 39 76 86 71 22 26 44 77 113 109
86 68 75 101 90 83 82 76 80 95 107 122 138 145 149 155 163 175 183 182 181 184 187 189 190 190 190 192 193 193 197 207 209 197 193 197 190 184 182 182 183 182 185 189 190 190 191 190 196 198 193 189 189 183 189 200 203 194 221 299 338 335 311 296 295 278 274 287 306 315 313 282 203 202 219 246 55 62 320 290 345 23 48 76 78
67 44 11 28 69 69 68 70 77 91 95 92 115 132 124 120 131 136 140 136 119 143 202 188 191 196 191 187 187 186 192 202 208 201 193 198 233 186 179 176 176 178 184 190 192 192 191 194 194 177 121 126 169 191 208 191 184 205 238 252 287 291 277 273 277 273 268 262 270 306 315 302 269 247 218 212 208 215 301 329 326 342 8 34 38
61 79 87 330 82 91 96 98 97 92 81 69 80 103 96 90 90 80 108 139 125 126 201 213 207 203 192 188 184 178 178 186 193 187 174 160 47 123 171 184 189 186 189 193 194 191 189 183 163 165 170 165 180 242 280 206 189 257 279 292 303 297 279 270 261 240 240 244 222 237 277 287 285 269 222 212 211 218 246 317 320 317 303 313 20
16 75 155 114 81 80 83 88 88 80 75 64 68 89 93 99 108 113 139 160 147 147 181 222 254 261 224 209 201 185 178 180 172 154 159 166 154 157 177 190 191 190 192 191 189 188 186 178 146 161 189 193 194 231 278 265 252 268 288 308 314 313 286 264 250 202 194 193 193 196 208 256 273 270 256 239 230 240 257 263 264 256 215 191 22
2 340 62 76 71 67 71 81 84 82 84 73 63 84 123 118 118 127 128 128 137 146 166 215 249 269 258 233 220 198 184 176 162 150 161 172 167 171 186 184 166 178 181 173 174 176 177 177 166 160 165 183 191 209 263 271 272 270 270 279 101 95 92 122 137 132 144 147 162 176 170 211 259 269 268 256 253 258 257 252 252 246 227 211 166
23 19 37 45 45 42 44 54 64 74 96 98 75 59 87 116 112 114 111 113 140 161 170 189 222 252 254 238 232 207 166 140 139 135 151 176 174 176 186 173 140 155 156 137 131 133 145 169 174 167 165 179 191 213 253 262 255 231 198 149 126 118 109 112 105 94 113 136 153 147 138 150 169 179 284 282 275 280 269 252 250 250 249 250 247
34 33 37 35 37 36 33 32 30 31 47 81 88 85 82 83 98 114 119 119 126 148 166 163 171 218 267 277 100 110 113 115 124 122 138 179 187 182 180 164 138 143 144 136 133 134 149 172 172 172 183 191 198 213 224 208 167 158 153 135 121 129 125 118 105 92 97 114 132 141 143 147 144 150 229 277 305 326 313 280 261 258 257 261 263
36 35 34 29 31 35 33 29 25 22 26 36 42 52 106 116 113 116 126 136 142 147 152 135 119 134 122 100 120 130 132 139 156 164 167 177 179 173 169 162 154 150 145 151 163 165 169 173 169 183 195 190 188 191 183 168 157 155 149 130 117 121 117 107 100 91 85 89 95 112 131 132 118 122 156 217 327 354 4 33 21 327 305 273 259
37 35 30 24 24 29 32 28 23 21 22 22 20 16 28 105 133 137 138 148 152 153 155 154 159 167 159 153 153 151 154 161 164 165 165 165 163 159 158 160 161 158 152 159 170 170 172 170 166 173 176 169 167 171 169 170 168 161 151 134 122 122 115 104 99 97 98 105 98 89 110 127 125 124 128 119 46 26 47 79 82 77 80 96 162
56 52 41 31 25 23 28 28 23 21 20 19 17 15 19 32 47 61 75 95 107 115 131 140 149 159 155 156 159 152 150 157 152 145 145 149 154 158 162 164 162 157 152 150 151 154 157 155 155 162 167 166 171 173 172 176 174 165 155 148 143 136 122 110 110 109 104 108 105 99 109 121 124 133 139 134 106 77 88 109 115 118 113 89 66
87 82 74 64 51 37 33 30 23 20 20 19 19 18 22 26 28 29 30 34 44 54 65 74 75 89 108 125 144 145 142 141 134 129 134 142 149 152 153 154 151 146 143 142 145 150 152 150 152 163 170 168 168 171 171 172 172 170 165 159 149 137 126 118 121 119 105 109 112 112 115 106 108 141 157 168 162 135 114 142 149 139 128 317 300
99 95 95 87 74 60 47 38 30 22 18 18 22 23 24 25 24 24 27 29 28 26 28 32 25 25 44 52 66 113 132 135 132 129 135 144 150 149 147 147 149 148 147 148 149 150 151 154 157 165 171 167 165 169 170 171 174 174 170 164 142 135 136 138 142 131 117 129 135 132 126 103 99 127 153 173 172 150 53 124 168 165 189 261 256
68 72 112 121 96 76 61 50 44 34 21 15 21 29 32 28 23 22 24 26 24 19 17 18 14 12 24 32 26 31 56 99 125 135 144 152 154 154 153 153 156 157 154 158 164 157 152 154 157 159 165 167 167 170 173 177 180 177 174 172 149 143 154 158 150 141 134 145 154 159 157 128 106 118 141 164 172 149 36 66 145 160 101 102 163
37 30 55 101 90 69 59 53 46 40 32 23 19 32 45 37 27 31 27 19 16 14 11 12 11 7 11 24 27 26 24 40 105 131 150 161 156 158 163 164 169 169 163 171 182 168 155 154 157 157 163 173 175 175 177 183 186 182 183 182 154 148 167 167 156 154 156 158 161 161 156 142 122 118 131 152 182 225 11 44 84 86 66 87 95
40 31 39 57 55 43 43 46 40 30 28 25 17 21 34 26 18 42 37 14 7 9 3 2 2 352 348 353 357 8 14 329 1 131 160 188 170 164 170 177 188 184 176 186 191 169 156 159 163 164 170 180 187 185 182 186 189 186 187 186 168 150 169 180 180 172 163 159 163 165 158 148 140 127 127 154 215 262 299 327 352 1 354 344 324
51 39 35 40 47 40 31 31 32 26 22 20 13 13 19 12 7 24 27 8 1 0 353 351 351 344 341 339 337 344 352 336 330 343 284 284 275 199 184 195 214 219 214 205 186 167 162 163 163 171 179 184 195 199 192 191 192 191 190 188 181 156 149 162 182 158 153 157 166 169 162 153 149 150 151 181 224 247 267 289 305 313 312 307 303
53 47 33 26 32 32 19 14 17 16 13 11 7 7 10 5 360 4 5 356 351 350 348 348 347 340 336 331 324 324 324 314 304 304 300 295 290 269 236 231 234 244 263 258 208 189 193 184 177 181 180 181 192 202 200 199 197 195 194 189 187 181 152 126 83 118 146 162 171 167 160 153 153 170 186 197 217 238 260 287 302 304 305 305 303
42 47 37 25 23 19 8 4 4 1 2 1 356 354 354 351 349 350 349 347 344 341 340 340 337 329 323 319 313 306 301 292 278 268 262 263 269 269 261 257 250 240 244 248 234 220 222 227 223 203 179 175 188 198 199 204 203 198 199 194 189 193 181 125 97 115 147 164 166 157 147 143 150 161 176 204 225 259 284 301 309 310 311 311 309
33 36 28 18 13 7 1 358 356 354 351 348 345 342 338 336 336 337 337 336 333 331 331 329 324 323 319 313 308 305 302 296 288 275 260 254 253 252 249 246 244 240 236 234 229 220 217 226 234 221 184 173 184 193 192 197 203 199 195 198 195 198 205 173 136 140 154 157 155 148 133 129 139 131 27 293 282 293 307 316 319 314 314 329 343
29 23 14 8 2 358 355 351 348 347 344 339 336 331 327 325 325 325 323 321 318 317 317 315 311 311 309 303 301 303 303 302 302 293 281 271 259 250 248 244 242 242 239 235 233 226 221 227 236 232 204 180 179 188 190 189 196 198 192 194 198 198 206 196 161 154 157 152 149 145 131 125 122 44 313 296 301 326 327 336 1 23 119 93 24
62 25 4 357 353 352 350 343 338 338 336 333 329 324 320 318 316 315 313 311 311 309 306 304 302 300 301 300 299 300 300 301 303 299 293 288 276 260 250 242 241 246 246 243 240 227 232 260 275 274 256 202 179 181 186 185 190 195 193 193 195 197 202 201 178 168 172 169 159 148 140 151 199 228 256 258 278 335 348 91 103 100 121 122 283
21 7 347 344 342 341 340 332 327 328 329 326 323 319 316 314 313 313 310 305 304 303 302 301 298 295 294 295 295 295 295 293 292 290 288 287 284 279 270 250 239 243 248 249 243 227 223 256 299 318 314 279 189 179 184 188 190 194 195 196 198 200 201 201 196 190 186 180 171 163 163 181 201 204 196 199 212 206 123 120 105 323 237 250 264
345 342 346 350 342 330 324 316 311 310 307 304 305 307 309 310 307 308 310 308 306 305 301 297 294 292 290 290 288 286 283 281 279 278 278 278 278 280 282 272 242 231 235 243 248 241 231 231 244 281 317 315 239 191 191 193 193 196 199 200 201 203 200 197 205 208 198 183 175 176 179 182 192 200 192 198 218 219 183 151 186 246 259 280 273
347 357 355 344 320 300 297 299 305 313 310 304 304 308 310 311 307 304 306 307 307 309 306 301 296 290 285 285 286 285 283 279 276 272 270 271 270 269 273 276 267 245 238 241 246 247 242 238 238 237 240 270 292 254 211 203 200 199 200 201 204 205 197 193 200 207 201 189 183 182 184 188 194 197 197 209 223 217 191 176 203 226 250 288 288
340 344 328 306 292 298 315 325 329 331 327 322 320 317 313 311 309 307 306 302 297 297 300 301 299 296 292 287 281 280 281 282 281 280 277 276 275 270 267 266 263 255 250 250 251 253 251 242 236 232 230 238 253 244 208 198 195 191 191 197 201 199 194 195 200 199 192 187 185 183 184 190 197 203 208 215 216 199 177 184 208 214 220 236 268